#timestamp,LO_Frequency,Hit,StdDev 
1597683615.8,286047000.8,N
1597683635.6,286046998.3,N
1597683655.5,286046998.4,N
1597683675.3,286046998.2,N
1597683695.1,286046998.5,N
1597683715.9,286046998.6,N
1597683735.7,286046998.7,N
1597683755.6,286047000.8,N
1597683775.4,286046998.3,N
1597683795.2,286046998.7,N
1597683815.1,286047001.2,N
1597683816.0,286047001.2,N
1597683835.8,286046998.7,N
1597683855.6,286047000.7,N
1597683875.5,286047000.4,N
1597683895.3,286047001.2,N
1597683915.2,286047000.3,N
1597683935.9,286047000.2,N
1597683955.7,286047001.9,N
1597683975.6,286047002.0,N
1597683995.4,286047002.3,N
1597684015.2,286047001.6,N
1597684035.1,286047002.6,N
1597684036.0,286047002.6,N
1597684055.8,286047002.3,N
1597684075.7,286047002.3,N
1597684095.5,286047000.1,N
1597684115.3,286047000.3,N
1597684135.2,286047001.1,N
1597684155.0,286047000.3,N
1597684155.9,286047000.3,N
1597684175.8,286047000.2,N
1597684195.6,286047001.0,N
1597684215.4,286047000.9,N
1597684235.3,286047000.7,N
1597684255.1,286047000.8,N
1597684275.8,286047001.0,N
1597684295.7,286047000.0,N
1597684315.5,286047001.9,N
1597684335.4,286047002.4,N
1597684355.2,286047002.3,N
1597684375.0,286047002.3,N
1597684375.9,286047002.3,N
1597684395.8,286047000.1,N
1597684415.6,286046999.8,N
1597684435.5,286047001.5,N
1597684455.3,286047002.5,N
1597684475.1,286047002.6,N
1597684495.9,286047001.7,N
1597684515.7,286047001.7,N
1597684535.5,286047001.6,N
1597684555.4,286046999.7,N
1597684575.2,286047002.5,N
1597684595.1,286047002.5,N
1597684596.0,286047002.5,N
1597684615.8,286047002.7,N
1597684635.6,286047002.6,N
1597684655.5,286047002.2,N
1597684675.3,286047001.7,N
1597684695.2,286047001.3,N
1597684715.9,286047001.9,N
1597684735.7,286047004.4,Y
1597684755.6,286047002.4,P
1597684775.4,286047002.5,P
1597684795.2,286047001.6,P
1597684815.1,286047002.1,Y
1597684816.0,286047002.1,P
1597684835.8,286047000.1,N
1597684855.7,286047007.5,P
1597684875.5,286047006.0,N
1597684895.3,286047003.5,N
1597684915.2,286047004.3,N
1597684935.0,286047003.5,N
1597684935.9,286047003.5,N
1597684955.8,286047001.7,N
1597684975.6,286047002.5,N
1597684995.4,286047000.2,N
1597685015.3,286047000.5,N
1597685035.1,286046998.6,N
1597685055.8,286047000.2,N
1597685105.7,286047002.6,E
1597685115.6,286047001.2,N
1597685135.5,286046999.6,P
1597685155.3,286046999.4,N
1597685175.1,286046998.7,N
1597685195.9,286046996.9,Y
1597685215.7,286046997.8,P
1597685235.6,286046995.6,P
1597685255.4,286046995.0,N
1597685275.2,286046994.9,N
1597685295.1,286046996.7,N
1597685296.0,286046996.7,N
1597685315.8,286046996.7,N
1597685335.7,286046997.9,N
1597685355.5,286046997.6,N
1597685375.3,286046997.1,N
1597685395.2,286046998.8,N
1597685415.0,286046999.1,N
1597685415.9,286046999.1,N
1597685435.7,286046999.2,N
1597685455.6,286046999.2,N
1597685475.4,286046995.0,Y
1597685495.3,286047001.1,P
1597685515.1,286046999.6,N
1597685535.8,286046998.9,N
1597685555.7,286046999.3,N
1597685575.5,286046999.5,N
1597685595.4,286046998.7,N
1597685615.2,286046997.0,Y
1597685635.0,286046998.1,P
1597685635.9,286046998.1,P
1597685655.8,286046998.1,P
1597685675.6,286046998.1,Y
1597685695.5,286047002.3,P
1597685715.3,286047000.4,N
1597685735.1,286047000.9,N
1597685755.9,286047000.2,N
1597685775.7,286047000.1,N
1597685795.5,286046999.8,N
1597685815.4,286047002.7,N
1597685835.2,286047001.7,N
1597685855.1,286047001.9,N
1597685856.0,286047001.9,N
1597685875.8,286047001.8,N
1597685895.6,286047001.4,N
1597685915.5,286047004.0,Y
1597685935.3,286047001.7,P
1597685955.2,286046999.9,N
1597685975.9,286047002.4,P
1597685995.7,286047000.0,N
1597686015.6,286047001.5,N
1597686035.4,286047002.5,N
1597686055.3,286047003.6,Y
1597686075.1,286047001.6,P
1597686076.0,286047001.6,P
1597686095.8,286047001.4,P
1597686115.7,286047002.2,Y
1597686135.5,286046998.6,P
1597686155.3,286046998.5,N
1597686175.2,286047000.9,N
1597686195.0,286047005.1,Y
1597686195.9,286047005.1,P
1597686215.8,286047003.7,N
1597686235.6,286047003.9,N
1597686255.4,286047000.4,N
1597686275.3,286046999.2,N
1597686295.1,286046996.9,N
1597686315.9,286046997.7,N
1597686335.7,286046997.7,N
1597686355.5,286046997.8,N
1597686375.4,286046997.4,N
1597686395.2,286046999.4,N
1597686415.1,286046998.8,N
1597686416.0,286046998.8,N
1597686435.8,286046998.6,N
1597686455.6,286047000.3,N
1597686475.5,286047000.4,N
1597686495.3,286047000.1,N
1597686515.1,286046999.7,N
1597686535.9,286047002.2,N
1597686555.7,286047001.5,N
1597686575.6,286047003.8,N
1597686595.4,286047003.9,N
1597686615.2,286047003.1,N
1597686635.1,286047003.1,N
1597686636.0,286047003.1,N
1597686655.8,286047003.4,N
1597686675.6,286047003.0,N
1597686695.5,286047003.6,N
1597686715.3,286047006.0,N
1597686735.2,286047005.1,N
1597686755.9,286047004.7,N
1597686775.7,286047004.5,N
1597686795.6,286047007.4,N
1597686815.4,286047007.5,N
1597686835.2,286047006.8,N
1597686855.1,286047007.4,N
1597686856.0,286047007.4,N
1597686875.8,286047007.3,N
1597686895.7,286047006.3,N
1597686915.5,286047006.9,N
1597686935.3,286047006.4,N
1597686955.2,286047007.0,N
1597686975.0,286047006.1,N
1597686975.9,286047006.1,N
1597686995.8,286047009.1,Y
1597687015.6,286047003.4,P
1597687035.4,286047006.0,P
1597687055.3,286047005.8,P
1597687075.1,286047005.6,Y
1597687095.8,286047001.0,P
1597687115.7,286047001.2,N
1597687135.5,286047000.2,N
1597687155.4,286046999.9,N
1597687175.2,286046999.9,N
1597687195.0,286047002.3,N
1597687195.9,286047002.3,N
